Regional Weather Roundup
Issued by NWS Grand Forks, ND

Home | Current Version | Previous Version | Graphics & Text | Print | Product List | Glossary On
Versions: 1 2 3 4 5 6 7 8 9 10 11 12 13 14 15 16 17 18 19 20 21 22 23 24 25 26 27 28 29 30 31 32 33 34 35 36 37 38 39 40 41 42 43 44 45 46 47 48 49 50
000
ASUS43 KFGF 151110
RWRFGF
PRAIRIE TO PINES  WEATHER ROUNDUP
NATIONAL WEATHER SERVICE EASTERN NORTH DAKOTA/GRAND FORKS ND
500 AM CST FRI DEC 15 2017

 **SATELLITE DATA USED TO AUGMENT SKY COVER AT AUTOMATED STATIONS**
 *****  WEATHER ACROSS EASTERN NORTH DAKOTA  *****

CITY           SKY/WX    TMP DP  RH WIND       PRES   REMARKS
GRAND FORKS    CLOUDY    19  13  77 E3        29.91F
GRAND FRKS AFB FLURRIES  18  11  74 CALM      29.91F
GRAND FRKS NWS   N/A     18 N/A N/A MISG        N/A
DEVILS LAKE    FLURRIES  22  20  92 S7        29.85F WCI  13
FARGO          CLOUDY    20  17  88 N3        29.92F
WAHPETON ARPT  CLOUDY    21  18  86 N5        29.92F WCI  15
$$

 ***** WEATHER ACROSS CENTRAL AND WESTERN NORTH DAKOTA  *****

CITY           SKY/WX    TMP DP  RH WIND       PRES   REMARKS
BISMARCK       MOCLDY    28  23  81 W5        29.88F WCI  23
MINOT          CLOUDY    30  23  75 SW7       29.80F WCI  23
JAMESTOWN      CLOUDY    23  21  92 SE7       29.86F WCI  15
MINOT AFB      MOCLDY    28  23  80 SW6       29.78F WCI  22
GARRISON         N/A     27  24  89 SW3       29.82F
WILLISTON      FAIR      28  24  85 S3        29.78F
DICKINSON      CLOUDY    27  23  85 SW6       29.79F WCI  20
HETTINGER      CLOUDY    23  20  88 NW3       29.85F
$$

 *****  OTHER AIRPORT OBSERVATIONS IN OUR AREA  *****

CITY           SKY/WX    TMP DP  RH WIND       PRES   REMARKS
WALHALLA       FLURRIES  16  16 100 SE7       29.90S WCI   6
GRAFTON AIRPOR   N/A     16  12  86 E5        29.94F WCI   9
VALLEY CITY AR FLURRIES  19  19 100 SE7       29.89F WCI  10
CANDO          LGT SNOW  23  23 100 S6        29.85F WCI  16
CAVALIER APRT  FLURRIES  14  12  92 SE3       29.91F
GWINNER          N/A     21  21 100 E5        29.90F WCI  15
SHEYENNE NWR     N/A     21  20  94 E3        29.95S
ROLLA          LGT SNOW  21  21 100 S9        29.80F WCI  11
 ***** THE ABOVE OBSERVATIONS ARE NON NWS ARE NOT QUALITY
       CONTROLLED AND MAY MIS-REPORT RAIN FOR SNOW...
$$

  *****  WEATHER ACROSS NORTHERN MINNESOTA  *****

CITY           SKY/WX    TMP DP  RH WIND       PRES   REMARKS
FLAG ISLAND    CLOUDY     7   1  78 NE7       29.88F WCI  -5
WARROAD        CLOUDY     9   3  78 NW3       29.90S
ROSEAU         CLOUDY     9   3  78 CALM      29.90S
HALLOCK        CLOUDY    12  10  92 CALM      29.91F
THF RVR FALLS  CLOUDY     9   7  92 CALM      29.91F
BAUDETTE       CLOUDY     9   4  80 N6        29.87F WCI  -1
WASKISH        CLOUDY     9   5  85 NW7       29.89F WCI  -3
CROOKSTON      MOCLDY    16  12  86 CALM      29.93F
STEPHEN NDAWN    N/A     12   9  85 CALM        N/A
GREENBUSH NDAW   N/A      3  -2  78 W3          N/A
$$
  *****  WEATHER ACROSS CENTRAL AND WEST MINNESOTA  *****

CITY           SKY/WX    TMP DP  RH WIND       PRES   REMARKS
FOSSTON        CLOUDY     7   3  85 CALM      29.89F
BEMIDJI        FLURRIES   8   4  84 N3        29.87F
PARK RAPIDS    CLOUDY    15  10  80 NW8       29.86F WCI   4
ELBOW LAKE     CLOUDY    22  19  87 N5        29.90F WCI  16
WADENA         CLOUDY    16  14  93 NW3       29.88F
DETROIT LAKES  CLOUDY    18  16  93 N3        29.90S
MOORHEAD       MOCLDY    19  16  86 CALM      29.93F
FERGUS FALLS   CLOUDY    19  16  86 CALM      29.94F
MORRIS MN      CLOUDY    25  23  93 N9        29.90R FOG     WCI  15
STAPLES        CLOUDY    16  10  79 NW8       29.88F WCI   5
$$
  *****  WEATHER ELSEWHERE ACROSS MINNESOTA  *****

CITY           SKY/WX    TMP DP  RH WIND       PRES   REMARKS
DULUTH         FLURRIES  11   6  81 NW12      29.83S WCI  -3
INTRNTL FALLS  CLOUDY     8   2  76 NW9       29.87F WCI  -5
ELY            FLURRIES   9   3  78 NW9       29.81S WCI  -5
CLOQUET        CLOUDY    12   7  79 NW8       29.85S WCI   1
WHEATON        CLOUDY    25  21  86 N6        29.94F WCI  18
BRAINERD       CLOUDY    17  10  74 NW9       29.89F WCI   6
HIBBING        LGT SNOW  10   5  80 NW10      29.85S WCI  -4
ALEXANDRIA     CLOUDY    22  18  85 N7        29.89F WCI  13
SAINT CLOUD    CLOUDY    20  17  88 N3        29.90F
MINNEAPOLIS    CLOUDY    24  20  84 NW3       29.91F
$$

  *****  WEATHER ACROSS SOUTH DAKOTA  *****

CITY           SKY/WX    TMP DP  RH WIND       PRES   REMARKS
SIOUX FALLS    CLOUDY    32  28  85 W7        29.95F
BROOKINGS      CLOUDY    30  27  88 W10       29.90  WCI  21
WATERTOWN      CLOUDY    30  27  88 W7        29.88F WCI  23
HURON          MOCLDY    32  26  78 W9        29.93F WCI  24
SISSETON         N/A     25  23  92 N10       29.91S WCI  15
ABERDEEN       CLOUDY    32  26  78 W7        29.90F
MITCHELL       CLOUDY    32  26  78 W12       29.98F WCI  23
PIERRE         FAIR      27  23  85 SW9       29.93F WCI  18
MOBRIDGE       CLOUDY    28  22  78 NW3       29.87F
RAPID CITY     FAIR      17  10  74 CALM      29.91F
$$

  *****  SOME WEATHER IN NEARBY STATES *****

CITY           SKY/WX    TMP DP  RH WIND       PRES   REMARKS
GLASGOW MT     FAIR      23  21  92 NW5       29.78F WCI  17
GREAT FALLS MT FAIR      41  15  35 SW28      29.89F
CHEYENNE WY    FAIR      31  12  45 W23       30.03F WCI  18
SCOTTSBLUFF NE FAIR      11   8  88 NW7       30.04F WCI   0
OMAHA NE       CLOUDY    34  25  69 SW10      30.08F
DES MOINES IA  CLOUDY    28  23  81 SW5       30.03F WCI  23
DAVENPORT IA   FAIR      25  17  72 W15       30.01S WCI  13
CHICAGO IL     CLOUDY    25  17  72 SW9       29.91F WCI  15
EAU CLAIRE WI  CLOUDY    19  12  74 W8        29.89S WCI   9
LA CROSSE WI   MOCLDY    25  14  63 NW16      29.91F WCI  12
$$

  *****  SOME NATIONAL WEATHER *****

CITY           SKY/WX    TMP DP  RH WIND       PRES   REMARKS
LA GUARDIA NY  MOCLDY    23   8  52 N5        30.10R WCI  17
RALEIGH NC     CLOUDY    34  26  72 E8        29.99F
ATLANTA GA     MOCLDY    38  31  76 NW9       30.00R
NEW ORLEANS LA CLOUDY    52  46  80 N3        30.08R
OKLAHOMA CITY  FAIR      32  27  81 NW12      30.25S WCI  23
ALBUQUERQUE NM FAIR      28  16  60 N6        30.33S WCI  22
SALT LAKE CITY FAIR      26  23  88 SE8       30.38F WCI  18
LOS ANGELES CA FAIR      54  32  43 SE3       30.11S
BOISE ID       CLOUDY    26  23  88 SE8       30.39F WCI  18
SEATTLE WA     CLOUDY    40  35  83 CALM      30.20R
$$

*** WEATHER ACROSS MANITOBA...SASKATCHEWAN AND ONTARIO ***
                ***ONTARIO***

CITY           SKY/WX    TMP DP  RH WIND       PRES   REMARKS
GERALDTON      FLURRIES  -2  -6  84 N7        29.76S WCI -16
THUNDER BAY    FLURRIES  12   7  79 NW9       29.80F WCI   0
SIOUX LOOKOUT  FLURRIES  -2  -8  78 NW3       29.82F
TORONTO        MOCLDY    14   9  79 SW10      29.93S WCI   1
BIG TROUT LK   FLURRIES -15 -18  84 NW9       29.89S WCI -33
PICKLE LAKE    FLURRIES  -9 -15  77 N8        29.82  WCI -26
DRYDEN         CLEAR     -2  -6  84 NW5       29.83F WCI -12
KENORA         FLURRIES  -2  -6  84 N3        29.85F
$$
                *** MANITOBA***

CITY           SKY/WX    TMP DP  RH WIND       PRES   REMARKS
BRANDON        LGT SNOW  18  16  93 SE7       29.81F WCI   8
DAUPHIN        FLURRIES  16  12  86 SE7       29.80F WCI   6
ISLAND LAKE    NOT AVBL
PILOT MOUND      N/A     18  16  93 SE9         N/A  WCI   6
THE PAS        FLURRIES   5   1  85 E9        29.81F WCI  -9
THOMPSON       FLURRIES -20 -26  76 CALM      29.92F
WINNIPEG       FLURRIES   5   3  92 NE3       29.91F
LYNN LAKE      CLOUDY    -6  -9  84 CALM      29.85S FOG
CHURCHILL      FLURRIES -13 -17  84 W7        29.96S WCI -29
GILLAM         FLURRIES -13 -18  77 SW5       29.92F WCI -25
$$
                ***SASKATCHEWAN***

CITY           SKY/WX    TMP DP  RH WIND       PRES   REMARKS
ESTEVAN        CLOUDY    27  23  86 S7        29.75F WCI  19
KINDERSLEY     CLOUDY    30  23  74 W9        29.65F WCI  22
LLOYDMINSTER   MOCLDY    37  30  75 W14       29.59F
PRINCE ALBERT  FLURRIES  28  27  93 E5        29.62F WCI  23
REGINA         CLOUDY    28  27  93 SE7       29.68F WCI  21
YORKTON        FLURRIES  27  25  93 S7        29.70F WCI  19
N. BATTLEFORD  CLOUDY    32  28  86 CALM      29.61F
LA RONGE       FLURRIES  16  12  86 NE10      29.68F WCI   3
SASKATOON      CLOUDY    32  28  86 SW10      29.62F WCI  24
SWIFT CURRENT  MOCLDY    34  21  60 W15G21    29.68F WCI  24
$$
NOTE: THESE ARE AUTOMATED STATIONS WITH LIMITED QUALITY CONTROL
      "FAIR" INDICATES FEW OR NO CLOUDS BELOW 12,000 FEET WITH NO
      SIGNIFICANT WEATHER AND/OR OBSTRUCTIONS TO VISIBILITY.
      SKY/WX - SKY CONDITION AND SIGNIFICANT WEATHER.
      TMP - AIR TEMPERATURE.    DP   - DEWPOINT TEMPERATURE.
      RH  - RELATIVE HUMIDITY.  PRES - PRESSURE.
      HX  - HEAT INDEX.         WCI  - WIND CHILL INDEX.
$




USA.gov is the U.S. government's official web portal to all federal, state and local government web resources and services.